Regional Weather Roundup
Issued by NWS

Home | Current Version | Previous Version | Graphics & Text | Print | Product List | Glossary On
Versions: 1 2 3 4 5 6 7 8 9 10 11 12 13 14 15 16 17 18 19 20 21 22 23 24 25 26 27
000
ASUS45 KCYS 180610
RWRWY

WYOMING REGIONAL WEATHER ROUNDUP
NATIONAL WEATHER SERVICE CHEYENNE WY
1100 PM MST FRI NOV 17 2017

NOTE:  "FAIR" INDICATES FEW OR NO CLOUDS BELOW 12,000 FEET
WITH NO SIGNIFICANT WEATHER AND/OR OBSTRUCTIONS TO VISIBILITY.

WYZ001-180700-
YELLOWSTONE NATIONAL PARK

CITY           SKY/WX    TMP DP  RH WIND       PRES   REMARKS
LK YELLOWSTONE   N/A      2   0  91 NW3       30.11R
6HR MIN TEMP:   2; 6HR MAX TEMP:  18;

W YELLOWSTONE  NOT AVBL

$$
WYZ002>013-054>058-071-098>099-180700-
NORTHERN WYOMING

CITY           SKY/WX    TMP DP  RH WIND       PRES   REMARKS
JACKSON        MOCLDY    22   9  57 W3        30.15R
CODY           FAIR      31  12  45 W10G22    30.05R WCI  22
GREYBULL       FAIR      31  18  58 NW9       30.04R WCI  23
6HR MIN TEMP:  30; 6HR MAX TEMP:  41;

WORLAND        FAIR      31  19  61 N3        30.05R
6HR MIN TEMP:  26; 6HR MAX TEMP:  39;

SHERIDAN       FAIR      24  18  77 W8        30.00R WCI  15
6HR MIN TEMP:  23; 6HR MAX TEMP:  35;

BUFFALO        FAIR      30  11  45 NW18      29.97R WCI  18
6HR MIN TEMP:  27; 6HR MAX TEMP:  34;

GILLETTE       FAIR      32  20  61 NW22      29.95R WCI  19
6HR MIN TEMP:  31; 6HR MAX TEMP:  35;

HULETT         FAIR      32  27  80 SW6       29.93R WCI  26
NEWCASTLE      FAIR      30  27  86 NW12      29.91R WCI  21

$$
WYZ014>020-022>026-101>103-180700-
CENTRAL WYOMING

CITY           SKY/WX    TMP DP  RH WIND       PRES   REMARKS
BIG PINEY      FAIR       6   2  83 NW10      30.13R WCI  -9
6HR MIN TEMP:   6; 6HR MAX TEMP:  25; 6HR PCP: TRACE;

PINEDALE       FAIR      14  10  85 NW9       30.13R WCI   2
DUBOIS         FAIR      19   9  63 MISG      30.04R
LANDER         FAIR      26  11  52 W9        30.05R WCI  17
6HR MIN TEMP:  26; 6HR MAX TEMP:  35;

RIVERTON       FAIR      28  10  46 NW22G32   30.04R WCI  14
6HR MIN TEMP:  25; 6HR MAX TEMP:  35; 6HR PCP:  0.07;

CASPER         FAIR      24  23  96 SW8       30.01R WCI  15
6HR MIN TEMP:  24; 6HR MAX TEMP:  32; 6HR PCP:  0.02;

DOUGLAS        FAIR      30  28  92 NW14      29.97R WCI  19
6HR MIN TEMP:  30; 6HR MAX TEMP:  32; 6HR PCP:  0.01;


$$
WYZ021-027>030-104>119-180700-
SOUTHERN WYOMING

CITY           SKY/WX    TMP DP  RH WIND       PRES   REMARKS
EVANSTON       FAIR      16  12  84 W12       30.21R WCI   3
6HR MIN TEMP:  16; 6HR MAX TEMP:  24;

FORT BRIDGER   FAIR      20  17  88 W16       30.22R WCI   6
ROCK SPRINGS   FAIR      19  16  88 W14       30.13R WCI   6
6HR MIN TEMP:  19; 6HR MAX TEMP:  27; 6HR PCP: TRACE;

DIXON          CLOUDY    24  20  85 W9        30.14R WCI  15
RAWLINS        MOCLDY    24  21  88 NW9       30.04R WCI  14
6HR MIN TEMP:  24; 6HR MAX TEMP:  32; 6HR PCP:  0.01;

SARATOGA       LGT SNOW  25  25 100 W17       30.05R WCI  11
LARAMIE        SNOW      23  23 100 NW35G43   29.93R VSB 1/4 WCI   4
6HR MIN TEMP:  23; 6HR MAX TEMP:  31; 6HR PCP:  0.01;

CHEYENNE       CLOUDY    30  25  81 N17G26    29.90R WCI  18
6HR MIN TEMP:  30; 6HR MAX TEMP:  37;

TORRINGTON     CLOUDY    37  27  67 NW16G25   29.92R WCI  28
6HR MIN TEMP:  36; 6HR MAX TEMP:  44;

PINE BLUFFS    CLOUDY    32  30  93 NW18G24   29.90R WCI  20

$$




USA.gov is the U.S. government's official web portal to all federal, state and local government web resources and services.